Location: Chuathbaluk
(61.5726°N, 159.2454°W)
Time: 22:53:57
(UTC+00:00)

Transit 4A - Pass Details

Date: 28 November 2020
Orbit: 864 x 981 km, 66.8° (Epoch: 19 January)

Event Time Altitude Azimuth Distance (km) Brightness Sun altitude
Rises 23:23:34 0° 283° (WNW) 3,687 11.0 6.1°
Reaches altitude 10° 23:26:13 10° 288° (WNW) 2,742 10.4 6.0°
Maximum altitude 23:32:32 55° 6° (N) 1,169 8.2 5.8°
Drops below altitude 10° 23:38:48 10° 84° (E) 2,718 10.1 5.6°
Sets 23:41:25 0° 89° (E) 3,652 10.8 5.5°
